Regional Weather Roundup
Issued by NWS

Home | Current Version | Previous Version | Text Only | Print | Product List | Glossary Off
Versions: 1 2 3 4 5 6 7 8 9 10 11 12 13 14 15 16 17 18 19 20 21 22 23 24 25 26 27 28 29 30 31 32 33 34 35 36 37 38 39 40 41 42 43 44 45 46 47 48 49 50

873
ASUS43 KBIS 090910
RWRND

NORTH DAKOTA REGIONAL WEATHER ROUNDUP
NATIONAL WEATHER SERVICE BISMARCK ND
300 AM CST TUE FEB 09 2016

NOTE: "FAIR" INDICATES FEW OR NO CLOUDS BELOW 12,000 FEET WITH NO
SIGNIFICANT WEATHER AND/OR OBSTRUCTIONS TO VISIBILITY.


NDZ001>003-009>011-017-091000-
NORTHWEST NORTH DAKOTA

CITY           SKY/WX    TMP DP  RH WIND       PRES   REMARKS
WILLISTON      CLOUDY    29  21  72 SE3       30.22F
MINOT          CLOUDY    25  14  63 SW6       30.23F WCI  18
MINOT AFB      CLOUDY    22  18  84 CALM      30.24R
$$

NDZ018>021-031>035-040>046-091000-
SOUTHWEST NORTH DAKOTA

CITY           SKY/WX    TMP DP  RH WIND       PRES   REMARKS
BISMARCK       CLOUDY    25   9  50 N8        30.28F WCI  16
DICKINSON      CLOUDY    25  17  72 SE5       30.19F WCI  19
GARRISON         N/A     22  14  71 CALM      30.25F
HETTINGER ARPT CLOUDY    27  17  66 W3        30.24R
$$

NDZ004>008-012>016-024-026-027-054-091000-
NORTHEAST NORTH DAKOTA

CITY           SKY/WX    TMP DP  RH WIND       PRES   REMARKS
GRAND FORKS    CLOUDY     7   1  76 NW10      30.26F WCI  -8
GRND FRKS AFB  CLOUDY     8   1  73 N10       30.26F WCI  -6
DEVILS LAKE    CLOUDY    11   7  84 NW8       30.26R WCI  -1
$$

NDZ022-023-025-028>030-036>039-047>053-091000-
SOUTHEAST NORTH DAKOTA

CITY           SKY/WX    TMP DP  RH WIND       PRES   REMARKS
FARGO          CLEAR      5  -1  76 N12       30.25S WCI -11
JAMESTOWN      MOCLDY     9   5  84 NW5       30.24F WCI   1
$$





USA.gov is the U.S. government's official web portal to all federal, state and local government web resources and services.